Time,TemperatureF,DewpointF,PressureIn,WindDirection,WindDirectionDegrees,WindSpeedMPH,WindSpeedGustMPH,Humidity,HourlyPrecipIn,Conditions,Clouds,dailyrainin,SoftwareType,DateUTC
2013-10-26 00:00:00,49.2,40.6,30.17,South,171,0.0,0.0,72,0.00,,,0.00,Wunderground v.1.15,2013-10-26 05:00:00,
2013-10-26 00:02:00,49.3,40.7,30.17,South,169,0.0,0.0,72,0.00,,,0.00,Wunderground v.1.15,2013-10-26 05:02:00,
2013-10-26 00:04:00,49.3,40.7,30.17,South,170,0.0,0.0,72,0.00,,,0.00,Wunderground v.1.15,2013-10-26 05:04:00,
2013-10-26 00:06:00,49.3,40.7,30.17,South,169,0.0,0.0,72,0.00,,,0.00,Wunderground v.1.15,2013-10-26 05:06:00,
2013-10-26 00:09:00,49.3,40.7,30.17,South,169,0.0,0.0,72,0.00,,,0.00,Wunderground v.1.15,2013-10-26 05:09:00,
2013-10-26 00:10:00,49.3,40.7,30.17,South,169,0.0,0.0,72,0.00,,,0.00,Wunderground v.1.15,2013-10-26 05:10:00,
2013-10-26 00:12:00,49.3,40.7,30.17,SSE,160,0.0,0.0,72,0.00,,,0.00,Wunderground v.1.15,2013-10-26 05:12:00,
2013-10-26 00:16:00,49.3,40.7,30.17,SSE,157,0.0,0.0,72,0.00,,,0.00,Wunderground v.1.15,2013-10-26 05:16:00,
2013-10-26 00:19:00,49.3,40.7,30.17,SSE,163,0.0,0.0,72,0.00,,,0.00,Wunderground v.1.15,2013-10-26 05:19:00,
2013-10-26 00:20:00,49.3,40.7,30.17,SSE,163,0.0,0.0,72,0.00,,,0.00,Wunderground v.1.15,2013-10-26 05:20:00,
2013-10-26 00:22:00,49.3,40.7,30.17,SSE,163,0.0,0.0,72,0.00,,,0.00,Wunderground v.1.15,2013-10-26 05:22:00,
2013-10-26 00:24:00,49.3,40.7,30.17,SSE,162,0.0,2.0,72,0.00,,,0.00,Wunderground v.1.15,2013-10-26 05:24:00,
2013-10-26 00:26:00,49.3,40.7,30.17,SSE,160,0.0,2.0,72,0.00,,,0.00,Wunderground v.1.15,2013-10-26 05:26:00,
2013-10-26 00:29:00,49.3,40.7,30.17,SSE,161,0.0,2.0,72,0.00,,,0.00,Wunderground v.1.15,2013-10-26 05:29:00,
2013-10-26 00:30:00,49.3,40.7,30.17,SSE,160,0.0,3.0,72,0.00,,,0.00,Wunderground v.1.15,2013-10-26 05:30:00,
2013-10-26 00:32:00,49.3,40.7,30.17,SSE,160,0.0,3.0,72,0.00,,,0.00,Wunderground v.1.15,2013-10-26 05:32:00,
2013-10-26 00:34:00,49.3,40.7,30.16,SSE,165,0.0,3.0,72,0.00,,,0.00,Wunderground v.1.15,2013-10-26 05:34:00,
2013-10-26 00:36:00,49.3,40.7,30.17,SSE,165,1.0,3.0,72,0.00,,,0.00,Wunderground v.1.15,2013-10-26 05:36:00,
2013-10-26 00:40:00,49.3,40.7,30.16,SSE,165,1.0,1.0,72,0.00,,,0.00,Wunderground v.1.15,2013-10-26 05:40:00,
2013-10-26 00:42:00,49.3,40.7,30.16,SSE,165,1.0,1.0,72,0.00,,,0.00,Wunderground v.1.15,2013-10-26 05:42:00,
2013-10-26 00:44:00,49.3,40.7,30.16,SSE,165,1.0,1.0,72,0.00,,,0.00,Wunderground v.1.15,2013-10-26 05:44:00,
2013-10-26 00:46:00,49.2,40.6,30.16,SSE,148,1.0,1.0,72,0.00,,,0.00,Wunderground v.1.15,2013-10-26 05:46:00,
2013-10-26 00:50:00,49.2,40.6,30.16,SE,146,1.0,1.0,72,0.00,,,0.00,Wunderground v.1.15,2013-10-26 05:50:00,
2013-10-26 00:52:00,49.2,40.6,30.16,SSE,154,1.0,1.0,72,0.00,,,0.00,Wunderground v.1.15,2013-10-26 05:52:00,
2013-10-26 00:54:00,49.2,40.6,30.16,SSE,153,1.0,1.0,72,0.00,,,0.00,Wunderground v.1.15,2013-10-26 05:54:00,
2013-10-26 00:56:00,49.2,40.6,30.16,SSE,161,1.0,1.0,72,0.00,,,0.00,Wunderground v.1.15,2013-10-26 05:56:00,
2013-10-26 00:59:00,49.2,40.6,30.16,SSE,161,1.0,1.0,72,0.00,,,0.00,Wunderground v.1.15,2013-10-26 05:59:00,
2013-10-26 01:00:00,49.2,40.6,30.16,SSE,161,1.0,2.0,72,0.00,,,0.00,Wunderground v.1.15,2013-10-26 06:00:00,
2013-10-26 01:02:00,49.2,40.6,30.16,SSE,160,1.0,4.0,72,0.00,,,0.00,Wunderground v.1.15,2013-10-26 06:02:00,
2013-10-26 01:04:00,49.2,40.6,30.15,SSE,160,1.0,4.0,72,0.00,,,0.00,Wunderground v.1.15,2013-10-26 06:04:00,
2013-10-26 01:06:00,49.2,40.6,30.16,SSE,161,1.0,4.0,72,0.00,,,0.00,Wunderground v.1.15,2013-10-26 06:06:00,
2013-10-26 01:09:00,49.2,40.6,30.15,SSE,161,1.0,4.0,72,0.00,,,0.00,Wunderground v.1.15,2013-10-26 06:09:00,
2013-10-26 01:10:00,49.2,40.6,30.15,SSE,159,1.0,1.0,72,0.00,,,0.00,Wunderground v.1.15,2013-10-26 06:10:00,
2013-10-26 01:12:00,49.2,40.6,30.15,SSE,157,1.0,1.0,72,0.00,,,0.00,Wunderground v.1.15,2013-10-26 06:12:00,
2013-10-26 01:16:00,49.1,40.5,30.15,SSE,157,1.0,1.0,72,0.00,,,0.00,Wunderground v.1.15,2013-10-26 06:16:00,
2013-10-26 01:20:00,49.0,40.7,30.15,SE,134,1.0,2.0,73,0.00,,,0.00,Wunderground v.1.15,2013-10-26 06:20:00,
2013-10-26 01:22:00,49.1,40.8,30.15,SE,134,1.0,2.0,73,0.00,,,0.00,Wunderground v.1.15,2013-10-26 06:22:00,
2013-10-26 01:26:00,49.0,40.7,30.15,SE,136,0.0,2.0,73,0.00,,,0.00,Wunderground v.1.15,2013-10-26 06:26:00,
2013-10-26 01:29:00,49.0,40.7,30.15,SE,137,0.0,2.0,73,0.00,,,0.00,Wunderground v.1.15,2013-10-26 06:29:00,
2013-10-26 01:30:00,49.0,40.7,30.15,SE,136,0.0,0.0,73,0.00,,,0.00,Wunderground v.1.15,2013-10-26 06:30:00,
2013-10-26 01:32:00,49.0,40.7,30.15,SE,136,0.0,0.0,73,0.00,,,0.00,Wunderground v.1.15,2013-10-26 06:32:00,
2013-10-26 01:39:00,48.9,40.6,30.15,SE,137,0.0,0.0,73,0.00,,,0.00,Wunderground v.1.15,2013-10-26 06:39:00,
2013-10-26 01:40:00,48.9,40.6,30.15,SE,137,0.0,0.0,73,0.00,,,0.00,Wunderground v.1.15,2013-10-26 06:40:00,
2013-10-26 01:46:00,48.8,40.5,30.15,SE,138,0.0,0.0,73,0.00,,,0.00,Wunderground v.1.15,2013-10-26 06:46:00,
2013-10-26 01:49:00,48.8,40.5,30.15,SSE,148,1.0,1.0,73,0.00,,,0.00,Wunderground v.1.15,2013-10-26 06:49:00,
2013-10-26 01:54:00,48.8,40.5,30.15,SSE,148,0.0,1.0,73,0.00,,,0.00,Wunderground v.1.15,2013-10-26 06:54:00,
2013-10-26 01:56:00,48.7,40.4,30.15,SSE,148,0.0,1.0,73,0.00,,,0.00,Wunderground v.1.15,2013-10-26 06:56:00,
2013-10-26 02:00:00,48.7,40.4,30.15,SSE,156,0.0,0.0,73,0.00,,,0.00,Wunderground v.1.15,2013-10-26 07:00:00,
2013-10-26 02:02:00,48.7,40.4,30.15,SSE,159,0.0,2.0,73,0.00,,,0.00,Wunderground v.1.15,2013-10-26 07:02:00,
2013-10-26 02:04:00,48.7,40.4,30.15,SSE,159,0.0,2.0,73,0.00,,,0.00,Wunderground v.1.15,2013-10-26 07:04:00,
2013-10-26 02:09:00,48.7,40.8,30.15,SSE,159,0.0,2.0,74,0.00,,,0.00,Wunderground v.1.15,2013-10-26 07:09:00,
2013-10-26 02:10:00,48.6,40.7,30.14,SSE,159,0.0,0.0,74,0.00,,,0.00,Wunderground v.1.15,2013-10-26 07:10:00,
2013-10-26 02:12:00,48.6,40.7,30.14,SSE,159,0.0,0.0,74,0.00,,,0.00,Wunderground v.1.15,2013-10-26 07:12:00,
2013-10-26 02:16:00,48.6,40.7,30.14,SE,140,0.0,2.0,74,0.00,,,0.00,Wunderground v.1.15,2013-10-26 07:16:00,
2013-10-26 02:19:00,48.6,40.7,30.14,SSE,150,1.0,2.0,74,0.00,,,0.00,Wunderground v.1.15,2013-10-26 07:19:00,
2013-10-26 02:20:00,48.6,40.7,30.14,SSE,150,1.0,1.0,74,0.00,,,0.00,Wunderground v.1.15,2013-10-26 07:20:00,
2013-10-26 02:24:00,48.6,40.7,30.14,SSE,153,1.0,1.0,74,0.00,,,0.00,Wunderground v.1.15,2013-10-26 07:24:00,
2013-10-26 02:26:00,48.6,40.7,30.14,SSE,154,1.0,1.0,74,0.00,,,0.00,Wunderground v.1.15,2013-10-26 07:26:00,
2013-10-26 02:29:00,48.6,40.7,30.14,SSE,163,1.0,1.0,74,0.00,,,0.00,Wunderground v.1.15,2013-10-26 07:29:00,
2013-10-26 02:32:00,48.6,40.7,30.14,SSE,163,1.0,1.0,74,0.00,,,0.00,Wunderground v.1.15,2013-10-26 07:32:00,
2013-10-26 02:34:00,48.6,40.7,30.14,SSE,161,1.0,1.0,74,0.00,,,0.00,Wunderground v.1.15,2013-10-26 07:34:00,
2013-10-26 02:39:00,48.5,40.6,30.14,SSE,157,1.0,1.0,74,0.00,,,0.00,Wunderground v.1.15,2013-10-26 07:39:00,
2013-10-26 02:42:00,48.5,40.6,30.13,SSE,163,1.0,1.0,74,0.00,,,0.00,Wunderground v.1.15,2013-10-26 07:42:00,
2013-10-26 02:44:00,48.5,40.6,30.14,SSE,163,1.0,4.0,74,0.00,,,0.00,Wunderground v.1.15,2013-10-26 07:44:00,
2013-10-26 02:49:00,48.5,40.6,30.14,SSE,151,1.0,4.0,74,0.00,,,0.00,Wunderground v.1.15,2013-10-26 07:49:00,
2013-10-26 02:50:00,48.5,40.6,30.14,SSE,151,1.0,1.0,74,0.00,,,0.00,Wunderground v.1.15,2013-10-26 07:50:00,
2013-10-26 02:52:00,48.5,40.6,30.14,SSE,151,1.0,1.0,74,0.00,,,0.00,Wunderground v.1.15,2013-10-26 07:52:00,
2013-10-26 02:54:00,48.5,40.6,30.13,SE,144,1.0,1.0,74,0.00,,,0.00,Wunderground v.1.15,2013-10-26 07:54:00,
2013-10-26 02:59:00,48.4,40.5,30.14,SSE,155,0.0,1.0,74,0.00,,,0.00,Wunderground v.1.15,2013-10-26 07:59:00,
2013-10-26 03:00:00,48.4,40.5,30.14,SSE,155,0.0,0.0,74,0.00,,,0.00,Wunderground v.1.15,2013-10-26 08:00:00,
2013-10-26 03:02:00,48.4,40.5,30.14,SSE,152,0.0,0.0,74,0.00,,,0.00,Wunderground v.1.15,2013-10-26 08:02:00,
2013-10-26 03:06:00,48.4,40.5,30.14,SSE,151,0.0,1.0,74,0.00,,,0.00,Wunderground v.1.15,2013-10-26 08:06:00,
2013-10-26 03:09:00,48.3,40.7,30.13,SSE,150,0.0,1.0,75,0.00,,,0.00,Wunderground v.1.15,2013-10-26 08:09:00,
2013-10-26 03:10:00,48.3,40.7,30.13,SSE,150,0.0,0.0,75,0.00,,,0.00,Wunderground v.1.15,2013-10-26 08:10:00,
2013-10-26 03:12:00,48.3,40.7,30.13,SSE,151,0.0,0.0,75,0.00,,,0.00,Wunderground v.1.15,2013-10-26 08:12:00,
2013-10-26 03:14:00,48.3,40.7,30.13,SSE,151,0.0,0.0,75,0.00,,,0.00,Wunderground v.1.15,2013-10-26 08:14:00,
2013-10-26 03:16:00,48.3,40.7,30.13,SSE,152,0.0,0.0,75,0.00,,,0.00,Wunderground v.1.15,2013-10-26 08:16:00,
2013-10-26 03:22:00,48.2,41.7,30.13,SSE,150,0.0,0.0,78,0.00,,,0.00,Wunderground v.1.15,2013-10-26 08:22:00,
2013-10-26 03:29:00,48.2,40.6,30.13,SSE,150,0.0,3.0,75,0.00,,,0.00,Wunderground v.1.15,2013-10-26 08:29:00,
2013-10-26 03:30:00,48.2,40.6,30.13,SSE,151,0.0,0.0,75,0.00,,,0.00,Wunderground v.1.15,2013-10-26 08:30:00,
2013-10-26 03:32:00,48.2,40.6,30.14,SSE,150,0.0,0.0,75,0.00,,,0.00,Wunderground v.1.15,2013-10-26 08:32:00,
2013-10-26 03:34:00,48.2,40.6,30.13,SSE,152,0.0,0.0,75,0.00,,,0.00,Wunderground v.1.15,2013-10-26 08:34:00,
2013-10-26 03:36:00,48.2,40.6,30.13,SSE,152,0.0,1.0,75,0.00,,,0.00,Wunderground v.1.15,2013-10-26 08:36:00,
2013-10-26 03:39:00,48.2,40.6,30.13,SSE,149,0.0,1.0,75,0.00,,,0.00,Wunderground v.1.15,2013-10-26 08:39:00,
2013-10-26 03:40:00,48.2,40.6,30.13,SSE,148,0.0,0.0,75,0.00,,,0.00,Wunderground v.1.15,2013-10-26 08:40:00,
2013-10-26 03:42:00,48.2,41.0,30.13,SSE,148,0.0,0.0,76,0.00,,,0.00,Wunderground v.1.15,2013-10-26 08:42:00,
2013-10-26 03:49:00,48.3,41.1,30.13,SSE,155,0.0,3.0,76,0.00,,,0.00,Wunderground v.1.15,2013-10-26 08:49:00,
2013-10-26 03:50:00,48.3,41.1,30.13,SSE,155,0.0,0.0,76,0.00,,,0.00,Wunderground v.1.15,2013-10-26 08:50:00,
2013-10-26 03:52:00,48.3,40.7,30.13,SSE,155,0.0,0.0,75,0.00,,,0.00,Wunderground v.1.15,2013-10-26 08:52:00,
2013-10-26 03:54:00,48.3,40.7,30.13,SSE,155,0.0,0.0,75,0.00,,,0.00,Wunderground v.1.15,2013-10-26 08:54:00,
2013-10-26 03:56:00,48.3,40.7,30.13,SSE,155,0.0,0.0,75,0.00,,,0.00,Wunderground v.1.15,2013-10-26 08:56:00,
2013-10-26 04:00:00,48.3,40.7,30.13,SSE,155,0.0,0.0,75,0.00,,,0.00,Wunderground v.1.15,2013-10-26 09:00:00,
2013-10-26 04:02:00,48.3,40.7,30.13,SSE,165,0.0,0.0,75,0.00,,,0.00,Wunderground v.1.15,2013-10-26 09:02:00,
2013-10-26 04:06:00,48.3,40.7,30.13,SSE,165,0.0,0.0,75,0.00,,,0.00,Wunderground v.1.15,2013-10-26 09:06:00,
2013-10-26 04:09:00,48.3,40.7,30.13,SSE,163,0.0,0.0,75,0.00,,,0.00,Wunderground v.1.15,2013-10-26 09:09:00,
2013-10-26 04:12:00,48.3,40.7,30.13,SSE,165,0.0,0.0,75,0.00,,,0.00,Wunderground v.1.15,2013-10-26 09:12:00,
2013-10-26 04:14:00,48.3,40.7,30.13,SSE,165,0.0,4.0,75,0.00,,,0.00,Wunderground v.1.15,2013-10-26 09:14:00,
2013-10-26 04:16:00,48.3,40.7,30.13,SSE,167,1.0,4.0,75,0.00,,,0.00,Wunderground v.1.15,2013-10-26 09:16:00,
2013-10-26 04:19:00,48.2,40.6,30.13,SSE,165,1.0,4.0,75,0.00,,,0.00,Wunderground v.1.15,2013-10-26 09:19:00,
2013-10-26 04:22:00,48.3,40.7,30.13,SSE,166,0.0,1.0,75,0.00,,,0.00,Wunderground v.1.15,2013-10-26 09:22:00,
2013-10-26 04:24:00,48.2,40.6,30.13,South,169,1.0,1.0,75,0.00,,,0.00,Wunderground v.1.15,2013-10-26 09:24:00,
2013-10-26 04:26:00,48.2,40.6,30.13,South,169,1.0,1.0,75,0.00,,,0.00,Wunderground v.1.15,2013-10-26 09:26:00,
2013-10-26 04:30:00,48.2,40.6,30.12,SSE,167,0.0,0.0,75,0.00,,,0.00,Wunderground v.1.15,2013-10-26 09:30:00,
2013-10-26 04:32:00,48.2,41.0,30.12,SSE,167,1.0,1.0,76,0.00,,,0.00,Wunderground v.1.15,2013-10-26 09:32:00,
2013-10-26 04:34:00,48.2,41.0,30.12,SSE,163,1.0,1.0,76,0.00,,,0.00,Wunderground v.1.15,2013-10-26 09:34:00,
2013-10-26 04:39:00,48.2,41.0,30.12,SSE,160,1.0,1.0,76,0.00,,,0.00,Wunderground v.1.15,2013-10-26 09:39:00,
2013-10-26 04:40:00,48.2,41.0,30.12,SSE,166,1.0,1.0,76,0.00,,,0.00,Wunderground v.1.15,2013-10-26 09:40:00,
2013-10-26 04:44:00,48.2,41.0,30.13,SSE,163,1.0,1.0,76,0.00,,,0.00,Wunderground v.1.15,2013-10-26 09:44:00,
2013-10-26 04:46:00,48.2,41.0,30.12,SSE,163,1.0,1.0,76,0.00,,,0.00,Wunderground v.1.15,2013-10-26 09:46:00,
2013-10-26 04:49:00,48.1,40.9,30.12,SSE,164,1.0,1.0,76,0.00,,,0.00,Wunderground v.1.15,2013-10-26 09:49:00,
2013-10-26 04:52:00,48.1,40.9,30.12,SSE,159,0.0,1.0,76,0.00,,,0.00,Wunderground v.1.15,2013-10-26 09:52:00,
2013-10-26 04:54:00,48.1,40.9,30.12,SSE,151,1.0,1.0,76,0.00,,,0.00,Wunderground v.1.15,2013-10-26 09:54:00,
2013-10-26 04:56:00,48.1,40.9,30.13,SSE,160,0.0,2.0,76,0.00,,,0.00,Wunderground v.1.15,2013-10-26 09:56:00,
2013-10-26 04:59:00,48.1,40.9,30.13,South,190,1.0,2.0,76,0.00,,,0.00,Wunderground v.1.15,2013-10-26 09:59:00,
2013-10-26 05:00:00,48.1,40.9,30.13,South,186,1.0,2.0,76,0.00,,,0.00,Wunderground v.1.15,2013-10-26 10:00:00,
2013-10-26 05:04:00,48.1,40.9,30.13,South,183,1.0,3.0,76,0.00,,,0.00,Wunderground v.1.15,2013-10-26 10:04:00,
2013-10-26 05:06:00,48.2,41.0,30.13,South,173,1.0,3.0,76,0.00,,,0.00,Wunderground v.1.15,2013-10-26 10:06:00,
2013-10-26 05:10:00,48.1,40.9,30.12,South,169,1.0,1.0,76,0.00,,,0.00,Wunderground v.1.15,2013-10-26 10:10:00,
2013-10-26 05:12:00,48.2,41.0,30.13,SSE,164,1.0,1.0,76,0.00,,,0.00,Wunderground v.1.15,2013-10-26 10:12:00,
2013-10-26 05:16:00,48.2,40.6,30.13,SSE,164,1.0,1.0,75,0.00,,,0.00,Wunderground v.1.15,2013-10-26 10:16:00,
2013-10-26 05:19:00,48.2,40.6,30.13,SSE,163,1.0,1.0,75,0.00,,,0.00,Wunderground v.1.15,2013-10-26 10:19:00,
2013-10-26 05:22:00,48.2,40.6,30.13,South,169,1.0,1.0,75,0.00,,,0.00,Wunderground v.1.15,2013-10-26 10:22:00,
2013-10-26 05:24:00,48.2,40.6,30.13,South,169,1.0,2.0,75,0.00,,,0.00,Wunderground v.1.15,2013-10-26 10:24:00,
2013-10-26 05:29:00,48.3,40.7,30.13,SSE,149,1.0,4.0,75,0.00,,,0.00,Wunderground v.1.15,2013-10-26 10:29:00,
2013-10-26 05:32:00,48.3,40.7,30.13,SSE,155,1.0,2.0,75,0.00,,,0.00,Wunderground v.1.15,2013-10-26 10:32:00,
2013-10-26 05:34:00,48.3,40.7,30.13,SSE,155,1.0,2.0,75,0.00,,,0.00,Wunderground v.1.15,2013-10-26 10:34:00,
2013-10-26 05:36:00,48.3,40.7,30.13,SSE,165,1.0,2.0,75,0.00,,,0.00,Wunderground v.1.15,2013-10-26 10:36:00,
2013-10-26 05:39:00,48.3,40.7,30.13,SSE,165,1.0,2.0,75,0.00,,,0.00,Wunderground v.1.15,2013-10-26 10:39:00,
2013-10-26 05:42:00,48.3,40.7,30.13,SSE,166,1.0,3.0,75,0.00,,,0.00,Wunderground v.1.15,2013-10-26 10:42:00,
2013-10-26 05:44:00,48.2,40.6,30.13,SSE,166,1.0,3.0,75,0.00,,,0.00,Wunderground v.1.15,2013-10-26 10:44:00,
2013-10-26 05:46:00,48.3,40.7,30.13,SSE,166,1.0,3.0,75,0.00,,,0.00,Wunderground v.1.15,2013-10-26 10:46:00,
2013-10-26 05:49:00,48.2,40.6,30.13,SSE,165,1.0,3.0,75,0.00,,,0.00,Wunderground v.1.15,2013-10-26 10:49:00,
2013-10-26 05:50:00,48.2,40.6,30.13,SSE,165,1.0,1.0,75,0.00,,,0.00,Wunderground v.1.15,2013-10-26 10:50:00,
2013-10-26 05:54:00,48.2,40.6,30.13,SSE,162,0.0,1.0,75,0.00,,,0.00,Wunderground v.1.15,2013-10-26 10:54:00,
2013-10-26 05:56:00,48.2,40.6,30.13,South,170,1.0,1.0,75,0.00,,,0.00,Wunderground v.1.15,2013-10-26 10:56:00,
2013-10-26 05:59:00,48.2,41.0,30.13,SSE,168,1.0,3.0,76,0.00,,,0.00,Wunderground v.1.15,2013-10-26 10:59:00,
2013-10-26 06:00:00,48.2,41.0,30.13,SSE,168,1.0,1.0,76,0.00,,,0.00,Wunderground v.1.15,2013-10-26 11:00:00,
2013-10-26 06:02:00,48.2,41.0,30.13,SSE,161,1.0,1.0,76,0.00,,,0.00,Wunderground v.1.15,2013-10-26 11:02:00,
2013-10-26 06:06:00,48.2,41.0,30.13,SSE,153,1.0,4.0,76,0.00,,,0.00,Wunderground v.1.15,2013-10-26 11:06:00,
2013-10-26 06:10:00,48.2,41.0,30.13,SE,144,1.0,3.0,76,0.00,,,0.00,Wunderground v.1.15,2013-10-26 11:10:00,
2013-10-26 06:12:00,48.2,41.0,30.13,SE,144,1.0,3.0,76,0.00,,,0.00,Wunderground v.1.15,2013-10-26 11:12:00,
2013-10-26 06:14:00,48.2,41.0,30.13,South,176,1.0,3.0,76,0.00,,,0.00,Wunderground v.1.15,2013-10-26 11:14:00,
2013-10-26 06:16:00,48.2,41.0,30.13,South,175,1.0,3.0,76,0.00,,,0.00,Wunderground v.1.15,2013-10-26 11:16:00,
2013-10-26 06:19:00,48.1,40.9,30.12,SSE,168,1.0,3.0,76,0.00,,,0.00,Wunderground v.1.15,2013-10-26 11:19:00,
2013-10-26 06:20:00,48.1,40.9,30.13,South,169,1.0,1.0,76,0.00,,,0.00,Wunderground v.1.15,2013-10-26 11:20:00,
2013-10-26 06:24:00,48.0,40.8,30.12,South,169,1.0,1.0,76,0.00,,,0.00,Wunderground v.1.15,2013-10-26 11:24:00,
2013-10-26 06:26:00,48.0,41.1,30.12,SSE,168,0.0,1.0,77,0.00,,,0.00,Wunderground v.1.15,2013-10-26 11:26:00,
2013-10-26 06:29:00,48.0,41.1,30.12,SSE,168,0.0,1.0,77,0.00,,,0.00,Wunderground v.1.15,2013-10-26 11:29:00,
2013-10-26 06:34:00,47.9,41.0,30.12,SSE,164,0.0,1.0,77,0.00,,,0.00,Wunderground v.1.15,2013-10-26 11:34:00,
2013-10-26 06:36:00,47.9,41.0,30.12,SSE,153,1.0,1.0,77,0.00,,,0.00,Wunderground v.1.15,2013-10-26 11:36:00,
2013-10-26 06:39:00,47.9,41.0,30.12,SSE,153,1.0,1.0,77,0.00,,,0.00,Wunderground v.1.15,2013-10-26 11:39:00,
2013-10-26 06:40:00,47.9,41.0,30.12,SSE,152,1.0,4.0,77,0.00,,,0.00,Wunderground v.1.15,2013-10-26 11:40:00,
2013-10-26 06:42:00,47.9,41.0,30.12,SSE,158,1.0,5.0,77,0.00,,,0.00,Wunderground v.1.15,2013-10-26 11:42:00,
2013-10-26 06:46:00,47.9,41.0,30.12,SSE,159,1.0,5.0,77,0.00,,,0.00,Wunderground v.1.15,2013-10-26 11:46:00,
2013-10-26 06:49:00,48.0,41.1,30.12,SSE,159,1.0,5.0,77,0.00,,,0.00,Wunderground v.1.15,2013-10-26 11:49:00,
2013-10-26 06:50:00,48.0,41.1,30.12,SSE,166,1.0,1.0,77,0.00,,,0.00,Wunderground v.1.15,2013-10-26 11:50:00,
2013-10-26 06:52:00,48.0,41.1,30.12,SSE,165,1.0,1.0,77,0.00,,,0.00,Wunderground v.1.15,2013-10-26 11:52:00,
2013-10-26 06:54:00,48.0,41.1,30.12,SSE,164,1.0,1.0,77,0.00,,,0.00,Wunderground v.1.15,2013-10-26 11:54:00,
2013-10-26 06:56:00,48.1,41.2,30.12,SSE,164,1.0,1.0,77,0.00,,,0.00,Wunderground v.1.15,2013-10-26 11:56:00,
2013-10-26 06:59:00,48.1,41.2,30.12,SSE,162,1.0,3.0,77,0.00,,,0.00,Wunderground v.1.15,2013-10-26 11:59:00,
2013-10-26 07:02:00,48.1,41.2,30.11,SSE,161,1.0,1.0,77,0.00,,,0.00,Wunderground v.1.15,2013-10-26 12:02:00,
2013-10-26 07:04:00,48.1,41.2,30.11,SSE,161,1.0,1.0,77,0.00,,,0.00,Wunderground v.1.15,2013-10-26 12:04:00,
2013-10-26 07:10:00,48.2,41.3,30.12,SSE,159,0.0,0.0,77,0.00,,,0.00,Wunderground v.1.15,2013-10-26 12:10:00,
2013-10-26 07:12:00,48.2,41.3,30.11,SSE,159,0.0,0.0,77,0.00,,,0.00,Wunderground v.1.15,2013-10-26 12:12:00,
2013-10-26 07:14:00,48.2,41.3,30.11,SSE,159,0.0,0.0,77,0.00,,,0.00,Wunderground v.1.15,2013-10-26 12:14:00,
2013-10-26 07:20:00,48.2,41.3,30.12,SSE,163,0.0,0.0,77,0.00,,,0.00,Wunderground v.1.15,2013-10-26 12:20:00,
2013-10-26 07:22:00,48.3,41.4,30.11,SSE,156,1.0,1.0,77,0.00,,,0.00,Wunderground v.1.15,2013-10-26 12:22:00,
2013-10-26 07:24:00,48.3,41.4,30.12,SSE,162,1.0,3.0,77,0.00,,,0.00,Wunderground v.1.15,2013-10-26 12:24:00,
2013-10-26 07:26:00,48.3,41.4,30.12,SSE,159,1.0,3.0,77,0.00,,,0.00,Wunderground v.1.15,2013-10-26 12:26:00,
2013-10-26 07:29:00,48.3,41.4,30.11,SSE,156,1.0,4.0,77,0.00,,,0.00,Wunderground v.1.15,2013-10-26 12:29:00,
2013-10-26 07:30:00,48.3,41.1,30.11,SSE,156,1.0,1.0,76,0.00,,,0.00,Wunderground v.1.15,2013-10-26 12:30:00,
2013-10-26 07:32:00,48.3,41.4,30.11,SSE,154,1.0,1.0,77,0.00,,,0.00,Wunderground v.1.15,2013-10-26 12:32:00,
2013-10-26 07:34:00,48.3,41.1,30.11,SSE,154,1.0,2.0,76,0.00,,,0.00,Wunderground v.1.15,2013-10-26 12:34:00,
2013-10-26 07:39:00,48.3,41.4,30.11,South,173,1.0,2.0,77,0.00,,,0.00,Wunderground v.1.15,2013-10-26 12:39:00,
2013-10-26 07:40:00,48.3,41.4,30.11,South,172,1.0,1.0,77,0.00,,,0.00,Wunderground v.1.15,2013-10-26 12:40:00,
2013-10-26 07:42:00,48.3,41.4,30.11,South,173,1.0,1.0,77,0.00,,,0.00,Wunderground v.1.15,2013-10-26 12:42:00,
2013-10-26 07:49:00,48.3,41.4,30.11,South,171,0.0,1.0,77,0.00,,,0.00,Wunderground v.1.15,2013-10-26 12:49:00,
2013-10-26 07:50:00,48.3,41.4,30.11,South,171,0.0,2.0,77,0.00,,,0.00,Wunderground v.1.15,2013-10-26 12:50:00,
2013-10-26 07:52:00,48.3,41.4,30.11,South,169,1.0,5.0,77,0.00,,,0.00,Wunderground v.1.15,2013-10-26 12:52:00,
2013-10-26 07:54:00,48.3,41.4,30.11,SSE,158,1.0,5.0,77,0.00,,,0.00,Wunderground v.1.15,2013-10-26 12:54:00,
2013-10-26 07:56:00,48.4,41.5,30.10,SSE,158,1.0,5.0,77,0.00,,,0.00,Wunderground v.1.15,2013-10-26 12:56:00,
2013-10-26 07:59:00,48.4,41.5,30.10,SE,142,1.0,5.0,77,0.00,,,0.00,Wunderground v.1.15,2013-10-26 12:59:00,
2013-10-26 08:02:00,48.4,41.5,30.10,South,175,1.0,1.0,77,0.00,,,0.00,Wunderground v.1.15,2013-10-26 13:02:00,
2013-10-26 08:04:00,48.4,41.5,30.11,South,175,0.0,1.0,77,0.00,,,0.00,Wunderground v.1.15,2013-10-26 13:04:00,
2013-10-26 08:10:00,48.4,41.9,30.10,SSE,159,1.0,2.0,78,0.00,,,0.00,Wunderground v.1.15,2013-10-26 13:10:00,
2013-10-26 08:12:00,48.5,42.0,30.11,SSE,159,1.0,2.0,78,0.00,,,0.00,Wunderground v.1.15,2013-10-26 13:12:00,
2013-10-26 08:14:00,48.5,42.0,30.10,SSE,159,1.0,2.0,78,0.00,,,0.00,Wunderground v.1.15,2013-10-26 13:14:00,
2013-10-26 08:16:00,48.5,42.0,30.10,SSE,159,1.0,2.0,78,0.00,,,0.00,Wunderground v.1.15,2013-10-26 13:16:00,
2013-10-26 08:20:00,48.5,42.0,30.10,SSE,164,0.0,0.0,78,0.00,,,0.00,Wunderground v.1.15,2013-10-26 13:20:00,
2013-10-26 08:22:00,48.6,42.0,30.10,SSE,163,0.0,1.0,78,0.00,,,0.00,Wunderground v.1.15,2013-10-26 13:22:00,
2013-10-26 08:24:00,48.6,42.0,30.10,SSE,163,0.0,1.0,78,0.00,,,0.00,Wunderground v.1.15,2013-10-26 13:24:00,
2013-10-26 08:26:00,48.6,42.0,30.10,SSE,163,0.0,1.0,78,0.00,,,0.00,Wunderground v.1.15,2013-10-26 13:26:00,
2013-10-26 08:30:00,48.7,42.1,30.10,SSE,159,0.0,0.0,78,0.00,,,0.00,Wunderground v.1.15,2013-10-26 13:30:00,
2013-10-26 08:32:00,48.7,42.1,30.10,SSE,159,0.0,0.0,78,0.00,,,0.00,Wunderground v.1.15,2013-10-26 13:32:00,
2013-10-26 08:34:00,48.8,42.2,30.10,SSE,159,0.0,0.0,78,0.00,,,0.00,Wunderground v.1.15,2013-10-26 13:34:00,
2013-10-26 08:36:00,48.9,42.3,30.10,SSE,159,0.0,0.0,78,0.00,,,0.00,Wunderground v.1.15,2013-10-26 13:36:00,
2013-10-26 08:39:00,49.0,42.4,30.10,SSE,159,0.0,0.0,78,0.00,,,0.00,Wunderground v.1.15,2013-10-26 13:39:00,
2013-10-26 08:42:00,49.2,42.6,30.10,SSE,156,0.0,0.0,78,0.00,,,0.00,Wunderground v.1.15,2013-10-26 13:42:00,
2013-10-26 08:44:00,49.3,42.7,30.10,SSE,149,0.0,1.0,78,0.00,,,0.00,Wunderground v.1.15,2013-10-26 13:44:00,
2013-10-26 08:46:00,49.5,42.6,30.10,SSE,149,0.0,1.0,77,0.00,,,0.00,Wunderground v.1.15,2013-10-26 13:46:00,
2013-10-26 08:50:00,49.9,43.0,30.10,SSE,148,1.0,1.0,77,0.00,,,0.00,Wunderground v.1.15,2013-10-26 13:50:00,
2013-10-26 08:54:00,50.4,43.1,30.10,SSE,148,0.0,1.0,76,0.00,,,0.00,Wunderground v.1.15,2013-10-26 13:54:00,
2013-10-26 08:59:00,50.7,43.1,30.10,SSE,164,0.0,1.0,75,0.00,,,0.00,Wunderground v.1.15,2013-10-26 13:59:00,
2013-10-26 09:00:00,50.8,43.2,30.10,SSE,164,0.0,1.0,75,0.00,,,0.00,Wunderground v.1.15,2013-10-26 14:00:00,
2013-10-26 09:04:00,51.0,43.4,30.11,SSE,164,0.0,1.0,75,0.00,,,0.00,Wunderground v.1.15,2013-10-26 14:04:00,
2013-10-26 09:10:00,51.0,43.4,30.11,SSE,168,1.0,1.0,75,0.00,,,0.00,Wunderground v.1.15,2013-10-26 14:10:00,
2013-10-26 09:16:00,51.1,43.4,30.11,SSE,166,0.0,1.0,75,0.00,,,0.00,Wunderground v.1.15,2013-10-26 14:16:00,
2013-10-26 09:19:00,51.1,43.4,30.11,SSE,155,1.0,1.0,75,0.00,,,0.00,Wunderground v.1.15,2013-10-26 14:19:00,
2013-10-26 09:24:00,51.2,43.9,30.11,SSE,151,1.0,3.0,76,0.00,,,0.00,Wunderground v.1.15,2013-10-26 14:24:00,
2013-10-26 09:26:00,51.2,43.5,30.11,SSE,151,1.0,3.0,75,0.00,,,0.00,Wunderground v.1.15,2013-10-26 14:26:00,
2013-10-26 09:30:00,51.4,43.7,30.11,SSE,149,0.0,0.0,75,0.00,,,0.00,Wunderground v.1.15,2013-10-26 14:30:00,
2013-10-26 09:32:00,51.5,43.8,30.11,SSE,150,0.0,0.0,75,0.00,,,0.00,Wunderground v.1.15,2013-10-26 14:32:00,
2013-10-26 09:34:00,51.6,43.9,30.11,SSE,149,0.0,0.0,75,0.00,,,0.00,Wunderground v.1.15,2013-10-26 14:34:00,
2013-10-26 09:36:00,51.7,44.0,30.11,SSE,161,0.0,0.0,75,0.00,,,0.00,Wunderground v.1.15,2013-10-26 14:36:00,
2013-10-26 09:39:00,51.9,44.2,30.11,SSE,164,0.0,1.0,75,0.00,,,0.00,Wunderground v.1.15,2013-10-26 14:39:00,
2013-10-26 09:42:00,52.1,44.4,30.11,SSE,164,0.0,0.0,75,0.00,,,0.00,Wunderground v.1.15,2013-10-26 14:42:00,
2013-10-26 09:44:00,52.3,44.6,30.11,SSE,163,0.0,0.0,75,0.00,,,0.00,Wunderground v.1.15,2013-10-26 14:44:00,
2013-10-26 09:46:00,52.6,44.9,30.11,SSE,163,0.0,0.0,75,0.00,,,0.00,Wunderground v.1.15,2013-10-26 14:46:00,
2013-10-26 09:52:00,53.5,45.4,30.11,SSE,163,0.0,0.0,74,0.00,,,0.00,Wunderground v.1.15,2013-10-26 14:52:00,
2013-10-26 09:54:00,53.9,45.4,30.11,SE,142,0.0,0.0,73,0.00,,,0.00,Wunderground v.1.15,2013-10-26 14:54:00,
2013-10-26 09:56:00,54.2,45.7,30.11,SSE,155,1.0,1.0,73,0.00,,,0.00,Wunderground v.1.15,2013-10-26 14:56:00,
2013-10-26 09:59:00,54.7,45.8,30.11,SSE,159,1.0,1.0,72,0.00,,,0.00,Wunderground v.1.15,2013-10-26 14:59:00,
2013-10-26 10:00:00,54.9,46.0,30.11,SSE,159,1.0,1.0,72,0.00,,,0.00,Wunderground v.1.15,2013-10-26 15:00:00,
2013-10-26 10:04:00,55.7,46.4,30.11,SSE,159,1.0,1.0,71,0.00,,,0.00,Wunderground v.1.15,2013-10-26 15:04:00,
2013-10-26 10:06:00,56.0,46.4,30.11,SSE,159,1.0,1.0,70,0.00,,,0.00,Wunderground v.1.15,2013-10-26 15:06:00,
2013-10-26 10:10:00,56.4,46.7,30.11,SSE,160,0.0,0.0,70,0.00,,,0.00,Wunderground v.1.15,2013-10-26 15:10:00,
2013-10-26 10:12:00,56.6,46.9,30.11,SSE,160,0.0,0.0,70,0.00,,,0.00,Wunderground v.1.15,2013-10-26 15:12:00,
2013-10-26 10:19:00,56.4,46.4,30.12,South,180,0.0,0.0,69,0.00,,,0.00,Wunderground v.1.15,2013-10-26 15:19:00,
2013-10-26 10:20:00,56.4,46.7,30.12,South,180,0.0,0.0,70,0.00,,,0.00,Wunderground v.1.15,2013-10-26 15:20:00,
2013-10-26 10:24:00,56.0,46.7,30.12,South,180,0.0,0.0,71,0.00,,,0.00,Wunderground v.1.15,2013-10-26 15:24:00,
2013-10-26 10:26:00,56.0,46.7,30.11,South,179,0.0,2.0,71,0.00,,,0.00,Wunderground v.1.15,2013-10-26 15:26:00,
2013-10-26 10:29:00,55.9,46.6,30.11,South,177,0.0,2.0,71,0.00,,,0.00,Wunderground v.1.15,2013-10-26 15:29:00,
2013-10-26 10:30:00,55.8,46.9,30.11,South,176,0.0,0.0,72,0.00,,,0.00,Wunderground v.1.15,2013-10-26 15:30:00,
2013-10-26 10:32:00,55.8,46.9,30.11,South,177,0.0,0.0,72,0.00,,,0.00,Wunderground v.1.15,2013-10-26 15:32:00,
2013-10-26 10:34:00,55.7,46.8,30.12,South,177,0.0,0.0,72,0.00,,,0.00,Wunderground v.1.15,2013-10-26 15:34:00,
2013-10-26 10:36:00,55.7,46.8,30.12,South,177,0.0,3.0,72,0.00,,,0.00,Wunderground v.1.15,2013-10-26 15:36:00,
2013-10-26 10:39:00,55.5,46.6,30.12,South,173,0.0,3.0,72,0.00,,,0.00,Wunderground v.1.15,2013-10-26 15:39:00,
2013-10-26 10:40:00,55.5,47.0,30.11,South,171,0.0,0.0,73,0.00,,,0.00,Wunderground v.1.15,2013-10-26 15:40:00,
2013-10-26 10:42:00,55.4,46.9,30.11,South,171,0.0,2.0,73,0.00,,,0.00,Wunderground v.1.15,2013-10-26 15:42:00,
2013-10-26 10:49:00,55.1,47.0,30.12,South,171,1.0,2.0,74,0.00,,,0.00,Wunderground v.1.15,2013-10-26 15:49:00,
2013-10-26 10:50:00,55.1,47.0,30.12,South,171,1.0,1.0,74,0.00,,,0.00,Wunderground v.1.15,2013-10-26 15:50:00,
2013-10-26 10:54:00,55.1,47.3,30.12,South,171,0.0,1.0,75,0.00,,,0.00,Wunderground v.1.15,2013-10-26 15:54:00,
2013-10-26 10:56:00,55.1,47.3,30.12,South,171,0.0,2.0,75,0.00,,,0.00,Wunderground v.1.15,2013-10-26 15:56:00,
2013-10-26 10:59:00,55.2,47.4,30.12,South,170,1.0,2.0,75,0.00,,,0.00,Wunderground v.1.15,2013-10-26 15:59:00,
2013-10-26 11:00:00,55.2,47.4,30.12,South,170,1.0,1.0,75,0.00,,,0.00,Wunderground v.1.15,2013-10-26 16:00:00,
2013-10-26 11:02:00,55.2,47.4,30.12,South,170,0.0,1.0,75,0.00,,,0.00,Wunderground v.1.15,2013-10-26 16:02:00,
2013-10-26 11:04:00,55.2,47.4,30.12,South,170,1.0,1.0,75,0.00,,,0.00,Wunderground v.1.15,2013-10-26 16:04:00,
2013-10-26 11:06:00,55.3,47.5,30.11,South,170,1.0,1.0,75,0.00,,,0.00,Wunderground v.1.15,2013-10-26 16:06:00,
2013-10-26 11:10:00,55.4,47.6,30.11,South,169,1.0,1.0,75,0.00,,,0.00,Wunderground v.1.15,2013-10-26 16:10:00,
2013-10-26 11:16:00,55.6,47.8,30.11,South,169,0.0,1.0,75,0.00,,,0.00,Wunderground v.1.15,2013-10-26 16:16:00,
2013-10-26 11:19:00,55.7,47.9,30.11,South,169,0.0,2.0,75,0.00,,,0.00,Wunderground v.1.15,2013-10-26 16:19:00,
2013-10-26 11:20:00,55.8,48.0,30.11,SSE,168,0.0,0.0,75,0.00,,,0.00,Wunderground v.1.15,2013-10-26 16:20:00,
2013-10-26 11:24:00,56.0,48.2,30.11,SSE,168,0.0,0.0,75,0.00,,,0.00,Wunderground v.1.15,2013-10-26 16:24:00,
2013-10-26 11:26:00,56.2,48.4,30.11,SSE,168,0.0,0.0,75,0.00,,,0.00,Wunderground v.1.15,2013-10-26 16:26:00,
2013-10-26 11:29:00,56.3,48.5,30.11,SSE,168,0.0,0.0,75,0.00,,,0.00,Wunderground v.1.15,2013-10-26 16:29:00,
2013-10-26 11:32:00,56.5,48.7,30.11,SSE,167,0.0,0.0,75,0.00,,,0.00,Wunderground v.1.15,2013-10-26 16:32:00,
2013-10-26 11:34:00,56.7,48.9,30.11,SSE,167,1.0,1.0,75,0.00,,,0.00,Wunderground v.1.15,2013-10-26 16:34:00,
2013-10-26 11:39:00,57.0,49.2,30.11,SSE,167,1.0,1.0,75,0.00,,,0.00,Wunderground v.1.15,2013-10-26 16:39:00,
2013-10-26 11:40:00,57.1,49.2,30.11,SSE,167,1.0,1.0,75,0.00,,,0.00,Wunderground v.1.15,2013-10-26 16:40:00,
2013-10-26 11:44:00,57.5,49.3,30.11,SSE,160,0.0,1.0,74,0.00,,,0.00,Wunderground v.1.15,2013-10-26 16:44:00,
2013-10-26 11:49:00,57.9,49.7,30.11,SSE,159,1.0,1.0,74,0.00,,,0.00,Wunderground v.1.15,2013-10-26 16:49:00,
2013-10-26 11:50:00,58.1,49.9,30.11,SSE,159,0.0,4.0,74,0.00,,,0.00,Wunderground v.1.15,2013-10-26 16:50:00,
2013-10-26 11:52:00,58.3,50.0,30.11,SSE,159,1.0,4.0,74,0.00,,,0.00,Wunderground v.1.15,2013-10-26 16:52:00,
2013-10-26 11:54:00,58.5,50.2,30.11,SSE,159,0.0,4.0,74,0.00,,,0.00,Wunderground v.1.15,2013-10-26 16:54:00,
2013-10-26 11:56:00,58.8,50.5,30.11,SSE,159,0.0,4.0,74,0.00,,,0.00,Wunderground v.1.15,2013-10-26 16:56:00,
2013-10-26 12:00:00,59.0,50.4,30.11,SSE,155,1.0,1.0,73,0.00,,,0.00,Wunderground v.1.15,2013-10-26 17:00:00,
2013-10-26 12:02:00,59.0,50.4,30.11,SSE,159,1.0,1.0,73,0.00,,,0.00,Wunderground v.1.15,2013-10-26 17:02:00,
2013-10-26 12:04:00,59.0,50.7,30.11,SSE,159,1.0,1.0,74,0.00,,,0.00,Wunderground v.1.15,2013-10-26 17:04:00,
2013-10-26 12:06:00,59.0,50.4,30.11,SSE,159,1.0,1.0,73,0.00,,,0.00,Wunderground v.1.15,2013-10-26 17:06:00,
2013-10-26 12:09:00,59.5,50.8,30.11,SSE,159,0.0,1.0,73,0.00,,,0.00,Wunderground v.1.15,2013-10-26 17:09:00,
2013-10-26 12:12:00,60.0,50.9,30.11,SSE,159,0.0,0.0,72,0.00,,,0.00,Wunderground v.1.15,2013-10-26 17:12:00,
2013-10-26 12:14:00,60.4,51.0,30.11,SSE,159,0.0,2.0,71,0.00,,,0.00,Wunderground v.1.15,2013-10-26 17:14:00,
2013-10-26 12:19:00,60.7,51.2,30.10,SSE,159,1.0,2.0,71,0.00,,,0.00,Wunderground v.1.15,2013-10-26 17:19:00,
2013-10-26 12:20:00,60.8,51.0,30.10,SSE,165,1.0,1.0,70,0.00,,,0.00,Wunderground v.1.15,2013-10-26 17:20:00,
2013-10-26 12:22:00,61.1,51.6,30.10,SSE,165,1.0,1.0,71,0.00,,,0.00,Wunderground v.1.15,2013-10-26 17:22:00,
2013-10-26 12:26:00,61.9,51.6,30.10,SSE,166,1.0,2.0,69,0.00,,,0.00,Wunderground v.1.15,2013-10-26 17:26:00,
2013-10-26 12:32:00,62.5,51.8,30.09,SSE,153,1.0,1.0,68,0.00,,,0.00,Wunderground v.1.15,2013-10-26 17:32:00,
2013-10-26 12:34:00,62.5,51.8,30.09,SE,137,1.0,1.0,68,0.00,,,0.00,Wunderground v.1.15,2013-10-26 17:34:00,
2013-10-26 12:36:00,62.6,51.9,30.09,SE,137,1.0,1.0,68,0.00,,,0.00,Wunderground v.1.15,2013-10-26 17:36:00,
2013-10-26 12:39:00,62.8,52.1,30.09,South,179,1.0,1.0,68,0.00,,,0.00,Wunderground v.1.15,2013-10-26 17:39:00,
2013-10-26 12:40:00,62.9,52.2,30.09,South,179,1.0,1.0,68,0.00,,,0.00,Wunderground v.1.15,2013-10-26 17:40:00,
2013-10-26 12:44:00,63.3,52.2,30.09,South,179,0.0,1.0,67,0.00,,,0.00,Wunderground v.1.15,2013-10-26 17:44:00,
2013-10-26 12:46:00,63.5,52.3,30.09,South,179,0.0,1.0,67,0.00,,,0.00,Wunderground v.1.15,2013-10-26 17:46:00,
2013-10-26 12:49:00,63.5,51.9,30.09,South,178,0.0,1.0,66,0.00,,,0.00,Wunderground v.1.15,2013-10-26 17:49:00,
2013-10-26 12:50:00,63.6,52.0,30.09,South,178,0.0,0.0,66,0.00,,,0.00,Wunderground v.1.15,2013-10-26 17:50:00,
2013-10-26 12:52:00,63.5,51.9,30.08,South,178,0.0,0.0,66,0.00,,,0.00,Wunderground v.1.15,2013-10-26 17:52:00,
2013-10-26 12:54:00,63.5,52.3,30.08,South,178,0.0,0.0,67,0.00,,,0.00,Wunderground v.1.15,2013-10-26 17:54:00,
2013-10-26 12:56:00,63.6,52.4,30.08,South,178,0.0,0.0,67,0.00,,,0.00,Wunderground v.1.15,2013-10-26 17:56:00,
2013-10-26 13:00:00,63.5,51.9,30.08,South,178,0.0,2.0,66,0.00,,,0.00,Wunderground v.1.15,2013-10-26 18:00:00,
2013-10-26 13:02:00,63.1,51.6,30.08,South,177,0.0,2.0,66,0.00,,,0.00,Wunderground v.1.15,2013-10-26 18:02:00,
2013-10-26 13:06:00,62.4,51.3,30.08,South,176,1.0,3.0,67,0.00,,,0.00,Wunderground v.1.15,2013-10-26 18:06:00,
2013-10-26 13:09:00,62.3,51.6,30.08,South,176,1.0,3.0,68,0.00,,,0.00,Wunderground v.1.15,2013-10-26 18:09:00,
2013-10-26 13:12:00,62.1,51.4,30.08,South,176,0.0,1.0,68,0.00,,,0.00,Wunderground v.1.15,2013-10-26 18:12:00,
2013-10-26 13:19:00,62.4,52.1,30.08,South,176,0.0,1.0,69,0.00,,,0.00,Wunderground v.1.15,2013-10-26 18:19:00,
2013-10-26 13:20:00,62.6,52.3,30.08,South,176,0.0,0.0,69,0.00,,,0.00,Wunderground v.1.15,2013-10-26 18:20:00,
2013-10-26 13:26:00,63.1,52.4,30.07,South,176,0.0,1.0,68,0.00,,,0.00,Wunderground v.1.15,2013-10-26 18:26:00,
2013-10-26 13:29:00,63.1,52.4,30.07,South,176,0.0,1.0,68,0.00,,,0.00,Wunderground v.1.15,2013-10-26 18:29:00,
2013-10-26 13:30:00,63.2,52.5,30.06,South,176,0.0,0.0,68,0.00,,,0.00,Wunderground v.1.15,2013-10-26 18:30:00,
2013-10-26 13:32:00,63.3,52.6,30.07,South,176,0.0,0.0,68,0.00,,,0.00,Wunderground v.1.15,2013-10-26 18:32:00,
2013-10-26 13:36:00,63.7,52.9,30.06,South,176,0.0,0.0,68,0.00,,,0.00,Wunderground v.1.15,2013-10-26 18:36:00,
2013-10-26 13:39:00,64.1,52.9,30.07,South,176,0.0,0.0,67,0.00,,,0.00,Wunderground v.1.15,2013-10-26 18:39:00,
2013-10-26 13:40:00,64.2,53.0,30.07,South,176,0.0,0.0,67,0.00,,,0.00,Wunderground v.1.15,2013-10-26 18:40:00,
2013-10-26 13:46:00,64.5,52.9,30.06,South,176,0.0,0.0,66,0.00,,,0.00,Wunderground v.1.15,2013-10-26 18:46:00,
2013-10-26 13:50:00,64.8,53.6,30.06,South,177,0.0,0.0,67,0.00,,,0.00,Wunderground v.1.15,2013-10-26 18:50:00,
2013-10-26 13:52:00,64.9,53.7,30.06,SSE,163,0.0,0.0,67,0.00,,,0.00,Wunderground v.1.15,2013-10-26 18:52:00,
2013-10-26 13:56:00,65.1,53.5,30.05,SSE,163,0.0,0.0,66,0.00,,,0.00,Wunderground v.1.15,2013-10-26 18:56:00,
2013-10-26 13:59:00,65.1,53.5,30.06,SSE,163,0.0,0.0,66,0.00,,,0.00,Wunderground v.1.15,2013-10-26 18:59:00,
2013-10-26 14:00:00,65.1,53.5,30.06,SSE,163,0.0,0.0,66,0.00,,,0.00,Wunderground v.1.15,2013-10-26 19:00:00,
2013-10-26 14:04:00,65.2,53.6,30.05,SSE,163,0.0,0.0,66,0.00,,,0.00,Wunderground v.1.15,2013-10-26 19:04:00,
2013-10-26 14:06:00,65.3,53.6,30.05,SSE,163,0.0,0.0,66,0.00,,,0.00,Wunderground v.1.15,2013-10-26 19:06:00,
2013-10-26 14:10:00,65.4,53.7,30.05,SSE,161,0.0,0.0,66,0.00,,,0.00,Wunderground v.1.15,2013-10-26 19:10:00,
2013-10-26 14:12:00,65.4,53.7,30.05,SSE,163,0.0,1.0,66,0.00,,,0.00,Wunderground v.1.15,2013-10-26 19:12:00,
2013-10-26 14:14:00,65.3,53.6,30.05,SSE,163,0.0,1.0,66,0.00,,,0.00,Wunderground v.1.15,2013-10-26 19:14:00,
2013-10-26 14:19:00,65.0,53.8,30.05,SSE,163,0.0,1.0,67,0.00,,,0.00,Wunderground v.1.15,2013-10-26 19:19:00,
2013-10-26 14:20:00,65.0,53.8,30.05,SSE,162,0.0,0.0,67,0.00,,,0.00,Wunderground v.1.15,2013-10-26 19:20:00,
2013-10-26 14:22:00,65.1,54.3,30.05,SSE,163,0.0,0.0,68,0.00,,,0.00,Wunderground v.1.15,2013-10-26 19:22:00,
2013-10-26 14:24:00,65.2,54.4,30.05,SSE,163,0.0,0.0,68,0.00,,,0.00,Wunderground v.1.15,2013-10-26 19:24:00,
2013-10-26 14:26:00,65.4,54.6,30.05,SSE,161,0.0,0.0,68,0.00,,,0.00,Wunderground v.1.15,2013-10-26 19:26:00,
2013-10-26 14:29:00,65.8,54.5,30.05,East,90,0.0,2.0,67,0.00,,,0.00,Wunderground v.1.15,2013-10-26 19:29:00,
2013-10-26 14:30:00,65.9,54.6,30.05,ENE,71,0.0,2.0,67,0.00,,,0.00,Wunderground v.1.15,2013-10-26 19:30:00,
2013-10-26 14:32:00,66.1,54.4,30.05,NE,53,1.0,3.0,66,0.00,,,0.00,Wunderground v.1.15,2013-10-26 19:32:00,
2013-10-26 14:34:00,66.2,54.5,30.05,NE,53,1.0,3.0,66,0.00,,,0.00,Wunderground v.1.15,2013-10-26 19:34:00,
2013-10-26 14:39:00,66.7,54.6,30.05,NE,53,1.0,3.0,65,0.00,,,0.00,Wunderground v.1.15,2013-10-26 19:39:00,
2013-10-26 14:40:00,66.8,54.7,30.05,NE,53,1.0,1.0,65,0.00,,,0.00,Wunderground v.1.15,2013-10-26 19:40:00,
2013-10-26 14:42:00,67.0,54.4,30.05,NE,55,0.0,1.0,64,0.00,,,0.00,Wunderground v.1.15,2013-10-26 19:42:00,
2013-10-26 14:44:00,67.1,54.5,30.05,NE,36,0.0,2.0,64,0.00,,,0.00,Wunderground v.1.15,2013-10-26 19:44:00,
2013-10-26 14:49:00,66.9,54.3,30.05,NE,36,2.0,3.0,64,0.00,,,0.00,Wunderground v.1.15,2013-10-26 19:49:00,
2013-10-26 14:50:00,66.8,54.2,30.05,NNE,13,2.0,7.0,64,0.00,,,0.00,Wunderground v.1.15,2013-10-26 19:50:00,
2013-10-26 14:54:00,66.3,53.8,30.06,NE,46,3.0,7.0,64,0.00,,,0.00,Wunderground v.1.15,2013-10-26 19:54:00,
2013-10-26 14:56:00,66.1,53.6,30.05,NE,52,3.0,7.0,64,0.00,,,0.00,Wunderground v.1.15,2013-10-26 19:56:00,
2013-10-26 14:59:00,65.8,53.7,30.06,NNE,26,3.0,7.0,65,0.00,,,0.00,Wunderground v.1.15,2013-10-26 19:59:00,
2013-10-26 15:00:00,65.7,53.6,30.06,NNE,29,3.0,3.0,65,0.00,,,0.00,Wunderground v.1.15,2013-10-26 20:00:00,
2013-10-26 15:04:00,65.5,53.4,30.06,NE,48,2.0,3.0,65,0.00,,,0.00,Wunderground v.1.15,2013-10-26 20:04:00,
2013-10-26 15:06:00,65.4,53.7,30.06,NE,45,2.0,3.0,66,0.00,,,0.00,Wunderground v.1.15,2013-10-26 20:06:00,
2013-10-26 15:10:00,65.3,53.6,30.06,NNE,25,2.0,2.0,66,0.00,,,0.00,Wunderground v.1.15,2013-10-26 20:10:00,
2013-10-26 15:12:00,65.2,53.1,30.06,NE,46,2.0,2.0,65,0.00,,,0.00,Wunderground v.1.15,2013-10-26 20:12:00,
2013-10-26 15:14:00,65.0,52.9,30.06,NE,51,2.0,2.0,65,0.00,,,0.00,Wunderground v.1.15,2013-10-26 20:14:00,
2013-10-26 15:16:00,64.9,53.3,30.06,ENE,60,2.0,4.0,66,0.00,,,0.00,Wunderground v.1.15,2013-10-26 20:16:00,
2013-10-26 15:20:00,64.5,52.9,30.06,NNE,20,3.0,3.0,66,0.00,,,0.00,Wunderground v.1.15,2013-10-26 20:20:00,
2013-10-26 15:22:00,64.4,52.8,30.06,NNE,28,2.0,3.0,66,0.00,,,0.00,Wunderground v.1.15,2013-10-26 20:22:00,
2013-10-26 15:24:00,64.4,52.8,30.06,NNE,29,2.0,3.0,66,0.00,,,0.00,Wunderground v.1.15,2013-10-26 20:24:00,
2013-10-26 15:29:00,64.3,52.7,30.06,East,79,1.0,3.0,66,0.00,,,0.00,Wunderground v.1.15,2013-10-26 20:29:00,
2013-10-26 15:30:00,64.2,53.0,30.06,ENE,63,1.0,4.0,67,0.00,,,0.00,Wunderground v.1.15,2013-10-26 20:30:00,
2013-10-26 15:34:00,64.1,52.9,30.06,NE,34,1.0,4.0,67,0.00,,,0.00,Wunderground v.1.15,2013-10-26 20:34:00,
2013-10-26 15:39:00,63.9,52.7,30.06,NNE,32,1.0,4.0,67,0.00,,,0.00,Wunderground v.1.15,2013-10-26 20:39:00,
2013-10-26 15:40:00,63.9,52.7,30.06,NNE,32,1.0,1.0,67,0.00,,,0.00,Wunderground v.1.15,2013-10-26 20:40:00,
2013-10-26 15:42:00,63.9,53.1,30.06,NNE,32,1.0,1.0,68,0.00,,,0.00,Wunderground v.1.15,2013-10-26 20:42:00,
2013-10-26 15:44:00,63.9,53.1,30.06,NNE,32,1.0,1.0,68,0.00,,,0.00,Wunderground v.1.15,2013-10-26 20:44:00,
2013-10-26 15:46:00,63.9,53.1,30.06,NE,40,1.0,1.0,68,0.00,,,0.00,Wunderground v.1.15,2013-10-26 20:46:00,
2013-10-26 15:49:00,63.9,53.1,30.06,NE,40,0.0,1.0,68,0.00,,,0.00,Wunderground v.1.15,2013-10-26 20:49:00,
2013-10-26 15:52:00,63.9,53.1,30.06,NE,40,0.0,2.0,68,0.00,,,0.00,Wunderground v.1.15,2013-10-26 20:52:00,
2013-10-26 15:54:00,63.9,53.1,30.06,NE,40,0.0,2.0,68,0.00,,,0.00,Wunderground v.1.15,2013-10-26 20:54:00,
2013-10-26 15:56:00,64.0,53.2,30.06,NE,40,0.0,2.0,68,0.00,,,0.00,Wunderground v.1.15,2013-10-26 20:56:00,
2013-10-26 15:59:00,64.0,53.6,30.06,NE,40,0.0,2.0,69,0.00,,,0.00,Wunderground v.1.15,2013-10-26 20:59:00,
2013-10-26 16:04:00,63.9,53.1,30.06,NE,40,0.0,1.0,68,0.00,,,0.00,Wunderground v.1.15,2013-10-26 21:04:00,
2013-10-26 16:06:00,63.9,53.1,30.06,NE,40,0.0,1.0,68,0.00,,,0.00,Wunderground v.1.15,2013-10-26 21:06:00,
2013-10-26 16:10:00,63.7,53.3,30.06,NE,41,0.0,0.0,69,0.00,,,0.00,Wunderground v.1.15,2013-10-26 21:10:00,
2013-10-26 16:12:00,63.7,53.3,30.06,NE,41,0.0,0.0,69,0.00,,,0.00,Wunderground v.1.15,2013-10-26 21:12:00,
2013-10-26 16:14:00,63.7,53.3,30.06,NE,41,0.0,0.0,69,0.00,,,0.00,Wunderground v.1.15,2013-10-26 21:14:00,
2013-10-26 16:16:00,63.7,53.3,30.06,NE,41,0.0,0.0,69,0.00,,,0.00,Wunderground v.1.15,2013-10-26 21:16:00,
2013-10-26 16:19:00,63.6,53.2,30.06,NE,41,0.0,0.0,69,0.00,,,0.00,Wunderground v.1.15,2013-10-26 21:19:00,
2013-10-26 16:24:00,63.5,53.5,30.06,NE,41,0.0,0.0,70,0.00,,,0.00,Wunderground v.1.15,2013-10-26 21:24:00,
2013-10-26 16:26:00,63.5,53.5,30.06,NE,41,0.0,0.0,70,0.00,,,0.00,Wunderground v.1.15,2013-10-26 21:26:00,
2013-10-26 16:29:00,63.5,53.5,30.06,NE,41,0.0,0.0,70,0.00,,,0.00,Wunderground v.1.15,2013-10-26 21:29:00,
2013-10-26 16:30:00,63.4,53.4,30.06,NE,41,0.0,0.0,70,0.00,,,0.00,Wunderground v.1.15,2013-10-26 21:30:00,
2013-10-26 16:32:00,63.4,53.4,30.06,NE,41,0.0,1.0,70,0.00,,,0.00,Wunderground v.1.15,2013-10-26 21:32:00,
2013-10-26 16:34:00,63.4,53.4,30.06,NE,42,0.0,1.0,70,0.00,,,0.00,Wunderground v.1.15,2013-10-26 21:34:00,
2013-10-26 16:36:00,63.4,53.8,30.06,NE,42,0.0,1.0,71,0.00,,,0.00,Wunderground v.1.15,2013-10-26 21:36:00,
2013-10-26 16:42:00,63.2,54.0,30.06,NE,43,0.0,0.0,72,0.00,,,0.00,Wunderground v.1.15,2013-10-26 21:42:00,
2013-10-26 16:46:00,63.1,53.9,30.06,NE,46,0.0,0.0,72,0.00,,,0.00,Wunderground v.1.15,2013-10-26 21:46:00,
2013-10-26 16:49:00,63.1,53.9,30.05,East,99,1.0,1.0,72,0.00,,,0.00,Wunderground v.1.15,2013-10-26 21:49:00,
2013-10-26 16:52:00,63.1,53.9,30.05,ESE,107,1.0,3.0,72,0.00,,,0.00,Wunderground v.1.15,2013-10-26 21:52:00,
2013-10-26 16:54:00,63.0,53.8,30.05,ESE,107,2.0,3.0,72,0.00,,,0.00,Wunderground v.1.15,2013-10-26 21:54:00,
2013-10-26 16:56:00,63.0,53.8,30.05,ESE,109,2.0,3.0,72,0.00,,,0.00,Wunderground v.1.15,2013-10-26 21:56:00,
2013-10-26 17:00:00,63.1,53.9,30.05,ESE,110,2.0,2.0,72,0.00,,,0.00,Wunderground v.1.15,2013-10-26 22:00:00,
2013-10-26 17:02:00,63.2,54.0,30.04,ESE,122,2.0,2.0,72,0.00,,,0.00,Wunderground v.1.15,2013-10-26 22:02:00,
2013-10-26 17:04:00,63.2,54.0,30.04,ESE,123,1.0,2.0,72,0.00,,,0.00,Wunderground v.1.15,2013-10-26 22:04:00,
2013-10-26 17:06:00,63.2,53.6,30.04,SE,126,1.0,2.0,71,0.00,,,0.00,Wunderground v.1.15,2013-10-26 22:06:00,
2013-10-26 17:10:00,63.3,53.7,30.04,SE,124,1.0,1.0,71,0.00,,,0.00,Wunderground v.1.15,2013-10-26 22:10:00,
2013-10-26 17:12:00,63.4,53.8,30.04,ESE,121,1.0,1.0,71,0.00,,,0.00,Wunderground v.1.15,2013-10-26 22:12:00,
2013-10-26 17:16:00,63.4,53.8,30.04,ESE,122,0.0,2.0,71,0.00,,,0.00,Wunderground v.1.15,2013-10-26 22:16:00,
2013-10-26 17:20:00,63.5,53.9,30.04,SE,126,1.0,3.0,71,0.00,,,0.00,Wunderground v.1.15,2013-10-26 22:20:00,
2013-10-26 17:22:00,63.4,53.8,30.03,SE,128,2.0,3.0,71,0.00,,,0.00,Wunderground v.1.15,2013-10-26 22:22:00,
2013-10-26 17:24:00,63.4,53.8,30.03,SE,130,2.0,3.0,71,0.00,,,0.00,Wunderground v.1.15,2013-10-26 22:24:00,
2013-10-26 17:26:00,63.4,53.8,30.03,SE,132,3.0,3.0,71,0.00,,,0.00,Wunderground v.1.15,2013-10-26 22:26:00,
2013-10-26 17:32:00,63.4,53.8,30.03,SE,132,1.0,2.0,71,0.00,,,0.00,Wunderground v.1.15,2013-10-26 22:32:00,
2013-10-26 17:34:00,63.4,53.8,30.03,SE,132,1.0,3.0,71,0.00,,,0.00,Wunderground v.1.15,2013-10-26 22:34:00,
2013-10-26 17:36:00,63.4,53.8,30.03,SE,132,1.0,3.0,71,0.00,,,0.00,Wunderground v.1.15,2013-10-26 22:36:00,
2013-10-26 17:42:00,63.2,54.0,30.03,SE,132,1.0,1.0,72,0.00,,,0.00,Wunderground v.1.15,2013-10-26 22:42:00,
2013-10-26 17:44:00,63.2,54.0,30.03,SE,132,1.0,1.0,72,0.00,,,0.00,Wunderground v.1.15,2013-10-26 22:44:00,
2013-10-26 17:49:00,63.1,54.3,30.03,SE,132,0.0,1.0,73,0.00,,,0.00,Wunderground v.1.15,2013-10-26 22:49:00,
2013-10-26 17:50:00,63.1,54.3,30.04,SE,132,0.0,0.0,73,0.00,,,0.00,Wunderground v.1.15,2013-10-26 22:50:00,
2013-10-26 17:52:00,63.0,54.2,30.04,SE,132,0.0,0.0,73,0.00,,,0.00,Wunderground v.1.15,2013-10-26 22:52:00,
2013-10-26 17:54:00,63.0,54.2,30.04,SE,132,0.0,0.0,73,0.00,,,0.00,Wunderground v.1.15,2013-10-26 22:54:00,
2013-10-26 17:56:00,62.9,54.1,30.04,SE,132,0.0,0.0,73,0.00,,,0.00,Wunderground v.1.15,2013-10-26 22:56:00,
2013-10-26 17:59:00,62.9,54.1,30.04,SE,132,0.0,0.0,73,0.00,,,0.00,Wunderground v.1.15,2013-10-26 22:59:00,
2013-10-26 18:00:00,62.9,54.1,30.04,SE,132,0.0,2.0,73,0.00,,,0.00,Wunderground v.1.15,2013-10-26 23:00:00,
2013-10-26 18:04:00,62.8,54.0,30.04,SE,132,0.0,2.0,73,0.00,,,0.00,Wunderground v.1.15,2013-10-26 23:04:00,
2013-10-26 18:06:00,62.7,53.9,30.04,SE,132,0.0,2.0,73,0.00,,,0.00,Wunderground v.1.15,2013-10-26 23:06:00,
2013-10-26 18:10:00,62.7,53.9,30.03,SE,132,0.0,0.0,73,0.00,,,0.00,Wunderground v.1.15,2013-10-26 23:10:00,
2013-10-26 18:12:00,62.6,53.8,30.03,SE,132,0.0,0.0,73,0.00,,,0.00,Wunderground v.1.15,2013-10-26 23:12:00,
2013-10-26 18:14:00,62.6,53.8,30.03,SE,132,0.0,0.0,73,0.00,,,0.00,Wunderground v.1.15,2013-10-26 23:14:00,
2013-10-26 18:16:00,62.5,53.7,30.03,SE,132,0.0,1.0,73,0.00,,,0.00,Wunderground v.1.15,2013-10-26 23:16:00,
2013-10-26 18:22:00,62.3,53.5,30.03,SE,132,1.0,4.0,73,0.00,,,0.00,Wunderground v.1.15,2013-10-26 23:22:00,
2013-10-26 18:24:00,62.3,53.5,30.03,SE,132,1.0,4.0,73,0.00,,,0.00,Wunderground v.1.15,2013-10-26 23:24:00,
2013-10-26 18:26:00,62.3,53.5,30.03,SE,132,1.0,4.0,73,0.00,,,0.00,Wunderground v.1.15,2013-10-26 23:26:00,
2013-10-26 18:30:00,62.2,53.4,30.03,SE,132,1.0,1.0,73,0.00,,,0.00,Wunderground v.1.15,2013-10-26 23:30:00,
2013-10-26 18:32:00,62.1,53.7,30.03,SE,132,0.0,1.0,74,0.00,,,0.00,Wunderground v.1.15,2013-10-26 23:32:00,
2013-10-26 18:34:00,62.1,53.7,30.03,SE,132,0.0,1.0,74,0.00,,,0.00,Wunderground v.1.15,2013-10-26 23:34:00,
2013-10-26 18:36:00,62.0,53.6,30.04,SE,132,0.0,1.0,74,0.00,,,0.00,Wunderground v.1.15,2013-10-26 23:36:00,
2013-10-26 18:39:00,62.0,53.6,30.04,SE,132,0.0,1.0,74,0.00,,,0.00,Wunderground v.1.15,2013-10-26 23:39:00,
2013-10-26 18:40:00,61.9,53.5,30.04,SE,132,0.0,0.0,74,0.00,,,0.00,Wunderground v.1.15,2013-10-26 23:40:00,
2013-10-26 18:42:00,61.9,53.5,30.04,SE,132,0.0,0.0,74,0.00,,,0.00,Wunderground v.1.15,2013-10-26 23:42:00,
2013-10-26 18:44:00,61.8,53.4,30.04,SE,132,0.0,0.0,74,0.00,,,0.00,Wunderground v.1.15,2013-10-26 23:44:00,
2013-10-26 18:49:00,61.8,53.8,30.04,SE,132,0.0,0.0,75,0.00,,,0.00,Wunderground v.1.15,2013-10-26 23:49:00,
2013-10-26 18:52:00,61.8,53.4,30.04,SE,132,0.0,0.0,74,0.00,,,0.00,Wunderground v.1.15,2013-10-26 23:52:00,
2013-10-26 18:56:00,61.8,53.4,30.05,SE,132,0.0,0.0,74,0.00,,,0.00,Wunderground v.1.15,2013-10-26 23:56:00,
2013-10-26 18:59:00,61.8,53.4,30.05,SE,132,0.0,0.0,74,0.00,,,0.00,Wunderground v.1.15,2013-10-26 23:59:00,
2013-10-26 19:00:00,61.8,53.4,30.05,SE,132,0.0,0.0,74,0.00,,,0.00,Wunderground v.1.15,2013-10-27 00:00:00,
2013-10-26 19:02:00,61.8,53.8,30.05,SE,132,0.0,0.0,75,0.00,,,0.00,Wunderground v.1.15,2013-10-27 00:02:00,
2013-10-26 19:04:00,61.8,53.8,30.05,SE,132,0.0,0.0,75,0.00,,,0.00,Wunderground v.1.15,2013-10-27 00:04:00,
2013-10-26 19:06:00,61.7,53.7,30.05,SE,132,0.0,0.0,75,0.00,,,0.00,Wunderground v.1.15,2013-10-27 00:06:00,
2013-10-26 19:09:00,61.7,53.7,30.05,SE,132,0.0,0.0,75,0.00,,,0.00,Wunderground v.1.15,2013-10-27 00:09:00,
2013-10-26 19:10:00,61.7,53.7,30.05,SE,132,0.0,0.0,75,0.00,,,0.00,Wunderground v.1.15,2013-10-27 00:10:00,
2013-10-26 19:14:00,61.7,53.7,30.05,SE,132,0.0,0.0,75,0.00,,,0.00,Wunderground v.1.15,2013-10-27 00:14:00,
2013-10-26 19:16:00,61.7,53.7,30.05,SE,132,0.0,0.0,75,0.00,,,0.00,Wunderground v.1.15,2013-10-27 00:16:00,
2013-10-26 19:19:00,61.7,53.7,30.05,SE,132,0.0,0.0,75,0.00,,,0.00,Wunderground v.1.15,2013-10-27 00:19:00,
2013-10-26 19:22:00,61.7,53.7,30.05,SE,132,0.0,0.0,75,0.00,,,0.00,Wunderground v.1.15,2013-10-27 00:22:00,
2013-10-26 19:24:00,61.7,53.7,30.05,SE,132,0.0,0.0,75,0.00,,,0.00,Wunderground v.1.15,2013-10-27 00:24:00,
2013-10-26 19:26:00,61.7,53.7,30.05,SE,132,0.0,0.0,75,0.00,,,0.00,Wunderground v.1.15,2013-10-27 00:26:00,
2013-10-26 19:30:00,61.6,53.6,30.06,SE,132,0.0,0.0,75,0.00,,,0.00,Wunderground v.1.15,2013-10-27 00:30:00,
2013-10-26 19:36:00,61.7,53.7,30.06,SE,132,0.0,0.0,75,0.00,,,0.00,Wunderground v.1.15,2013-10-27 00:36:00,
2013-10-26 19:39:00,61.6,53.6,30.06,SE,132,0.0,0.0,75,0.00,,,0.00,Wunderground v.1.15,2013-10-27 00:39:00,
2013-10-26 19:42:00,61.6,53.6,30.05,SE,132,0.0,0.0,75,0.00,,,0.00,Wunderground v.1.15,2013-10-27 00:42:00,
2013-10-26 19:44:00,61.6,53.6,30.05,SE,132,0.0,0.0,75,0.00,,,0.00,Wunderground v.1.15,2013-10-27 00:44:00,
2013-10-26 19:46:00,61.6,53.6,30.05,SE,132,0.0,0.0,75,0.00,,,0.00,Wunderground v.1.15,2013-10-27 00:46:00,
2013-10-26 19:49:00,61.6,54.0,30.05,SE,132,0.0,0.0,76,0.00,,,0.00,Wunderground v.1.15,2013-10-27 00:49:00,
2013-10-26 19:52:00,61.6,54.0,30.06,SE,132,0.0,0.0,76,0.00,,,0.00,Wunderground v.1.15,2013-10-27 00:52:00,
2013-10-26 19:56:00,61.6,54.0,30.06,SE,132,0.0,0.0,76,0.00,,,0.00,Wunderground v.1.15,2013-10-27 00:56:00,
2013-10-26 19:59:00,61.6,54.0,30.06,SE,132,0.0,0.0,76,0.00,,,0.00,Wunderground v.1.15,2013-10-27 00:59:00,
2013-10-26 20:00:00,61.6,54.0,30.06,SE,132,0.0,0.0,76,0.00,,,0.00,Wunderground v.1.15,2013-10-27 01:00:00,
2013-10-26 20:02:00,61.6,54.0,30.06,SE,132,0.0,0.0,76,0.00,,,0.00,Wunderground v.1.15,2013-10-27 01:02:00,
2013-10-26 20:04:00,61.6,54.0,30.06,SE,132,0.0,0.0,76,0.00,,,0.00,Wunderground v.1.15,2013-10-27 01:04:00,
2013-10-26 20:06:00,61.6,54.0,30.06,SE,129,0.0,1.0,76,0.00,,,0.00,Wunderground v.1.15,2013-10-27 01:06:00,
2013-10-26 20:10:00,61.6,54.0,30.06,SE,129,0.0,0.0,76,0.00,,,0.00,Wunderground v.1.15,2013-10-27 01:10:00,
2013-10-26 20:16:00,61.4,53.8,30.06,SE,129,0.0,0.0,76,0.00,,,0.00,Wunderground v.1.15,2013-10-27 01:16:00,
2013-10-26 20:19:00,61.4,53.8,30.06,SE,129,0.0,0.0,76,0.00,,,0.00,Wunderground v.1.15,2013-10-27 01:19:00,
2013-10-26 20:22:00,61.3,53.7,30.06,SE,129,0.0,0.0,76,0.00,,,0.00,Wunderground v.1.15,2013-10-27 01:22:00,
2013-10-26 20:24:00,61.2,53.6,30.06,SE,129,0.0,0.0,76,0.00,,,0.00,Wunderground v.1.15,2013-10-27 01:24:00,
2013-10-26 20:26:00,61.2,53.6,30.06,SE,129,0.0,0.0,76,0.00,,,0.00,Wunderground v.1.15,2013-10-27 01:26:00,
2013-10-26 20:29:00,61.1,53.8,30.06,SE,129,0.0,0.0,77,0.00,,,0.00,Wunderground v.1.15,2013-10-27 01:29:00,
2013-10-26 20:32:00,60.9,53.6,30.06,SE,129,0.0,0.0,77,0.00,,,0.00,Wunderground v.1.15,2013-10-27 01:32:00,
2013-10-26 20:34:00,60.8,53.5,30.06,SE,129,0.0,0.0,77,0.00,,,0.00,Wunderground v.1.15,2013-10-27 01:34:00,
2013-10-26 20:36:00,60.8,53.5,30.06,SE,129,0.0,0.0,77,0.00,,,0.00,Wunderground v.1.15,2013-10-27 01:36:00,
2013-10-26 20:42:00,60.6,53.7,30.05,SE,129,0.0,0.0,78,0.00,,,0.00,Wunderground v.1.15,2013-10-27 01:42:00,
2013-10-26 20:44:00,60.5,53.6,30.05,SE,129,0.0,0.0,78,0.00,,,0.00,Wunderground v.1.15,2013-10-27 01:44:00,
2013-10-26 20:46:00,60.5,53.6,30.06,SE,129,0.0,0.0,78,0.00,,,0.00,Wunderground v.1.15,2013-10-27 01:46:00,
2013-10-26 20:49:00,60.5,53.6,30.06,SE,129,0.0,0.0,78,0.00,,,0.00,Wunderground v.1.15,2013-10-27 01:49:00,
2013-10-26 20:52:00,60.4,53.5,30.06,SE,129,0.0,0.0,78,0.00,,,0.00,Wunderground v.1.15,2013-10-27 01:52:00,
2013-10-26 20:54:00,60.4,53.5,30.06,SE,129,0.0,0.0,78,0.00,,,0.00,Wunderground v.1.15,2013-10-27 01:54:00,
2013-10-26 20:56:00,60.3,53.4,30.06,SE,128,0.0,2.0,78,0.00,,,0.00,Wunderground v.1.15,2013-10-27 01:56:00,
2013-10-26 21:00:00,60.3,53.8,30.06,SE,128,0.0,0.0,79,0.00,,,0.00,Wunderground v.1.15,2013-10-27 02:00:00,
2013-10-26 21:04:00,60.3,53.8,30.06,SE,128,0.0,0.0,79,0.00,,,0.00,Wunderground v.1.15,2013-10-27 02:04:00,
2013-10-26 21:06:00,60.2,53.7,30.06,SE,128,0.0,0.0,79,0.00,,,0.00,Wunderground v.1.15,2013-10-27 02:06:00,
2013-10-26 21:09:00,60.0,53.8,30.07,SE,128,0.0,0.0,80,0.00,,,0.00,Wunderground v.1.15,2013-10-27 02:09:00,
2013-10-26 21:10:00,60.0,53.8,30.07,SE,128,0.0,0.0,80,0.00,,,0.00,Wunderground v.1.15,2013-10-27 02:10:00,
2013-10-26 21:12:00,59.9,53.7,30.07,SE,128,0.0,0.0,80,0.00,,,0.00,Wunderground v.1.15,2013-10-27 02:12:00,
2013-10-26 21:16:00,59.6,53.4,30.07,SE,128,0.0,0.0,80,0.00,,,0.00,Wunderground v.1.15,2013-10-27 02:16:00,
2013-10-26 21:19:00,59.5,53.7,30.07,SE,128,0.0,0.0,81,0.00,,,0.00,Wunderground v.1.15,2013-10-27 02:19:00,
2013-10-26 21:22:00,59.2,53.4,30.07,SE,128,0.0,0.0,81,0.00,,,0.00,Wunderground v.1.15,2013-10-27 02:22:00,
2013-10-26 21:24:00,59.1,53.3,30.07,SE,128,0.0,0.0,81,0.00,,,0.00,Wunderground v.1.15,2013-10-27 02:24:00,
2013-10-26 21:26:00,59.0,53.2,30.07,SE,128,0.0,0.0,81,0.00,,,0.00,Wunderground v.1.15,2013-10-27 02:26:00,
2013-10-26 21:30:00,59.0,53.5,30.07,SE,128,0.0,0.0,82,0.00,,,0.00,Wunderground v.1.15,2013-10-27 02:30:00,
2013-10-26 21:32:00,59.0,53.5,30.07,SE,128,0.0,0.0,82,0.00,,,0.00,Wunderground v.1.15,2013-10-27 02:32:00,
2013-10-26 21:34:00,59.0,53.5,30.07,SE,128,0.0,0.0,82,0.00,,,0.00,Wunderground v.1.15,2013-10-27 02:34:00,
2013-10-26 21:39:00,58.9,53.4,30.07,SE,128,0.0,0.0,82,0.00,,,0.00,Wunderground v.1.15,2013-10-27 02:39:00,
2013-10-26 21:40:00,58.8,53.3,30.07,SE,128,0.0,0.0,82,0.00,,,0.00,Wunderground v.1.15,2013-10-27 02:40:00,
2013-10-26 21:42:00,58.7,53.5,30.07,SE,128,0.0,0.0,83,0.00,,,0.00,Wunderground v.1.15,2013-10-27 02:42:00,
2013-10-26 21:44:00,58.7,53.5,30.07,SE,128,0.0,0.0,83,0.00,,,0.00,Wunderground v.1.15,2013-10-27 02:44:00,
2013-10-26 21:46:00,58.7,53.5,30.07,SE,128,0.0,0.0,83,0.00,,,0.00,Wunderground v.1.15,2013-10-27 02:46:00,
2013-10-26 21:49:00,58.6,53.5,30.07,SE,128,0.0,1.0,83,0.00,,,0.00,Wunderground v.1.15,2013-10-27 02:49:00,
2013-10-26 21:50:00,58.6,53.5,30.07,SE,128,0.0,0.0,83,0.00,,,0.00,Wunderground v.1.15,2013-10-27 02:50:00,
2013-10-26 21:54:00,58.5,53.4,30.07,SE,128,0.0,0.0,83,0.00,,,0.00,Wunderground v.1.15,2013-10-27 02:54:00,
2013-10-26 21:56:00,58.5,53.4,30.07,SE,128,0.0,0.0,83,0.00,,,0.00,Wunderground v.1.15,2013-10-27 02:56:00,
2013-10-26 22:00:00,58.4,53.3,30.07,SE,128,0.0,0.0,83,0.00,,,0.00,Wunderground v.1.15,2013-10-27 03:00:00,
2013-10-26 22:02:00,58.3,53.2,30.07,SE,128,0.0,0.0,83,0.00,,,0.00,Wunderground v.1.15,2013-10-27 03:02:00,
2013-10-26 22:04:00,58.2,53.1,30.07,SE,128,0.0,0.0,83,0.00,,,0.00,Wunderground v.1.15,2013-10-27 03:04:00,
2013-10-26 22:06:00,58.1,53.3,30.07,SE,128,0.0,0.0,84,0.00,,,0.00,Wunderground v.1.15,2013-10-27 03:06:00,
2013-10-26 22:09:00,58.0,53.2,30.07,SE,128,0.0,0.0,84,0.00,,,0.00,Wunderground v.1.15,2013-10-27 03:09:00,
2013-10-26 22:12:00,57.9,53.1,30.07,SE,128,0.0,0.0,84,0.00,,,0.00,Wunderground v.1.15,2013-10-27 03:12:00,
2013-10-26 22:16:00,57.8,53.0,30.07,SE,128,0.0,0.0,84,0.00,,,0.00,Wunderground v.1.15,2013-10-27 03:16:00,
2013-10-26 22:19:00,57.8,53.0,30.07,SE,128,0.0,0.0,84,0.00,,,0.00,Wunderground v.1.15,2013-10-27 03:19:00,
2013-10-26 22:24:00,57.7,52.9,30.07,SE,128,0.0,0.0,84,0.00,,,0.00,Wunderground v.1.15,2013-10-27 03:24:00,
2013-10-26 22:26:00,57.6,52.8,30.07,SE,128,0.0,0.0,84,0.00,,,0.00,Wunderground v.1.15,2013-10-27 03:26:00,
2013-10-26 22:32:00,57.4,52.9,30.07,SE,128,0.0,0.0,85,0.00,,,0.00,Wunderground v.1.15,2013-10-27 03:32:00,
2013-10-26 22:36:00,57.4,52.9,30.07,SE,128,0.0,0.0,85,0.00,,,0.00,Wunderground v.1.15,2013-10-27 03:36:00,
2013-10-26 22:40:00,57.3,52.8,30.07,SE,128,0.0,0.0,85,0.00,,,0.00,Wunderground v.1.15,2013-10-27 03:40:00,
2013-10-26 22:42:00,57.2,52.7,30.07,SE,128,0.0,0.0,85,0.00,,,0.00,Wunderground v.1.15,2013-10-27 03:42:00,
2013-10-26 22:46:00,57.0,52.5,30.07,SE,128,0.0,0.0,85,0.00,,,0.00,Wunderground v.1.15,2013-10-27 03:46:00,
2013-10-26 22:49:00,56.9,52.8,30.07,SE,128,0.0,0.0,86,0.00,,,0.00,Wunderground v.1.15,2013-10-27 03:49:00,
2013-10-26 22:52:00,56.8,52.7,30.07,SE,128,0.0,0.0,86,0.00,,,0.00,Wunderground v.1.15,2013-10-27 03:52:00,
2013-10-26 22:54:00,56.8,52.7,30.07,SE,128,0.0,0.0,86,0.00,,,0.00,Wunderground v.1.15,2013-10-27 03:54:00,
2013-10-26 22:56:00,56.8,52.7,30.07,SE,128,0.0,0.0,86,0.00,,,0.00,Wunderground v.1.15,2013-10-27 03:56:00,
2013-10-26 23:00:00,56.7,52.6,30.07,SE,128,0.0,0.0,86,0.00,,,0.00,Wunderground v.1.15,2013-10-27 04:00:00,
2013-10-26 23:02:00,56.7,52.9,30.07,SE,128,0.0,0.0,87,0.00,,,0.00,Wunderground v.1.15,2013-10-27 04:02:00,
2013-10-26 23:04:00,56.7,52.9,30.07,SE,128,0.0,0.0,87,0.00,,,0.00,Wunderground v.1.15,2013-10-27 04:04:00,
2013-10-26 23:06:00,56.6,52.8,30.07,SE,128,0.0,0.0,87,0.00,,,0.00,Wunderground v.1.15,2013-10-27 04:06:00,
2013-10-26 23:10:00,56.6,52.8,30.07,SE,128,0.0,0.0,87,0.00,,,0.00,Wunderground v.1.15,2013-10-27 04:10:00,
2013-10-26 23:12:00,56.6,52.8,30.07,SE,128,0.0,0.0,87,0.00,,,0.00,Wunderground v.1.15,2013-10-27 04:12:00,
2013-10-26 23:14:00,56.6,52.8,30.07,SE,128,0.0,0.0,87,0.00,,,0.00,Wunderground v.1.15,2013-10-27 04:14:00,
2013-10-26 23:16:00,56.6,52.8,30.07,SE,128,0.0,0.0,87,0.00,,,0.00,Wunderground v.1.15,2013-10-27 04:16:00,
2013-10-26 23:19:00,56.7,52.9,30.07,SE,128,0.0,0.0,87,0.00,,,0.00,Wunderground v.1.15,2013-10-27 04:19:00,
2013-10-26 23:24:00,56.7,52.9,30.08,East,96,1.0,3.0,87,0.00,,,0.00,Wunderground v.1.15,2013-10-27 04:24:00,
2013-10-26 23:26:00,56.7,52.9,30.08,East,96,1.0,3.0,87,0.00,,,0.00,Wunderground v.1.15,2013-10-27 04:26:00,
2013-10-26 23:29:00,56.7,52.6,30.08,North,9,1.0,3.0,86,0.00,,,0.00,Wunderground v.1.15,2013-10-27 04:29:00,
2013-10-26 23:32:00,56.6,52.5,30.08,North,360,2.0,2.0,86,0.00,,,0.00,Wunderground v.1.15,2013-10-27 04:32:00,
2013-10-26 23:34:00,56.6,52.5,30.08,North,360,2.0,2.0,86,0.00,,,0.00,Wunderground v.1.15,2013-10-27 04:34:00,
2013-10-26 23:39:00,56.4,52.3,30.08,North,360,2.0,3.0,86,0.00,,,0.00,Wunderground v.1.15,2013-10-27 04:39:00,
2013-10-26 23:42:00,56.3,52.2,30.08,North,9,2.0,2.0,86,0.00,,,0.00,Wunderground v.1.15,2013-10-27 04:42:00,
2013-10-26 23:46:00,56.2,51.7,30.08,NNE,16,1.0,3.0,85,0.00,,,0.00,Wunderground v.1.15,2013-10-27 04:46:00,
2013-10-26 23:49:00,56.1,51.7,30.08,NNE,15,1.0,3.0,85,0.00,,,0.00,Wunderground v.1.15,2013-10-27 04:49:00,
2013-10-26 23:52:00,56.0,51.6,30.08,North,10,1.0,5.0,85,0.00,,,0.00,Wunderground v.1.15,2013-10-27 04:52:00,
2013-10-26 23:54:00,56.0,51.6,30.08,North,9,2.0,5.0,85,0.00,,,0.00,Wunderground v.1.15,2013-10-27 04:54:00,
2013-10-26 23:59:00,55.8,51.0,30.07,NNE,20,2.0,5.0,84,0.00,,,0.00,Wunderground v.1.15,2013-10-27 04:59:00,